Wind_Speed
19 20 22 23 23 22 20 19 18 17 16 15 15 15 15 15 14 14 13 12 12 11 11 10 9 7 5 4 2 1 2 5 8 9 10 11 11 12 11 11 10 10 10 10 10 9 8 8 7 7 7 7 7 7 8 9 10 10 10 9 8 7 6 5 4 4 5 5 5 6 6 5 4 3 2 1 3 4 6 8 10 10 11 12 13
19 18 20 22 23 23 22 21 20 18 17 16 16 16 15 15 15 14 14 13 12 12 11 10 9 7 6 5 3 2 2 6 8 9 10 11 12 12 11 11 10 10 10 10 9 9 8 7 7 6 6 7 7 7 8 8 9 10 10 9 8 7 6 4 3 3 3 3 4 4 4 3 3 2 1 1 2 4 5 6 7 8 10 12 13
20 19 19 21 23 24 24 23 21 19 18 17 17 17 16 16 15 14 14 14 14 13 12 11 10 8 7 6 4 3 4 6 9 10 10 11 12 12 11 11 10 9 9 9 8 8 7 6 5 5 5 6 6 6 7 7 8 9 9 9 9 8 7 6 4 3 2 2 3 3 3 3 2 1 1 1 1 2 3 5 6 8 10 12 14
21 20 19 20 22 24 25 24 23 21 19 18 19 18 18 17 15 15 14 14 14 14 13 12 11 10 8 7 6 5 6 8 10 11 12 12 12 12 11 10 10 9 8 8 7 7 6 5 4 4 4 4 4 5 6 6 6 7 8 9 9 9 8 7 6 5 4 4 3 3 4 4 4 3 3 2 1 1 2 4 5 7 9 12 14
20 20 20 20 21 22 24 25 24 23 22 21 20 20 20 19 17 16 15 14 14 14 14 13 12 11 10 9 8 8 7 9 12 13 13 13 13 12 12 11 10 8 7 7 6 6 5 4 3 2 2 2 2 3 4 5 6 6 7 8 9 9 9 9 8 7 6 6 5 5 5 6 5 5 4 3 2 3 4 4 5 7 10 12 13
19 20 20 20 19 20 22 24 25 25 25 24 23 22 21 20 19 18 16 15 14 13 13 13 13 12 11 10 10 9 9 10 12 14 14 14 14 13 12 11 10 8 7 5 5 4 4 3 2 2 2 2 2 3 3 4 5 6 7 8 9 9 10 10 10 9 9 8 7 7 7 7 7 7 7 5 4 4 5 5 6 8 11 13 14
19 20 21 20 20 19 20 22 25 27 27 27 26 25 23 22 21 20 18 17 15 14 13 14 14 14 12 11 11 10 10 10 12 14 14 14 14 14 13 12 11 9 7 6 4 3 3 3 2 2 3 3 4 5 5 5 5 6 7 7 9 10 10 11 11 11 11 10 10 9 8 8 9 9 8 7 6 6 7 7 8 9 12 14 14
19 20 21 21 20 20 20 22 24 27 29 29 29 27 26 24 23 22 20 18 16 15 15 15 15 15 14 12 12 11 10 11 12 13 14 14 14 14 13 12 11 9 8 7 6 5 4 4 4 4 4 5 5 6 7 7 7 7 7 8 9 10 11 11 12 12 12 12 12 11 10 10 10 10 10 10 10 9 9 9 10 11 13 15 15
19 20 20 21 22 22 22 23 24 26 28 29 29 28 27 27 26 24 22 20 18 17 17 17 16 16 15 14 13 12 11 12 12 13 15 15 14 14 14 13 11 10 9 8 7 7 6 6 6 6 6 6 7 7 8 8 9 9 9 9 10 10 11 12 13 14 14 14 14 13 13 12 11 11 12 12 12 13 12 11 11 12 13 15 15
20 19 20 21 24 25 24 24 24 25 26 26 27 27 28 28 28 27 25 23 21 20 19 18 17 16 16 15 14 13 13 13 14 14 15 16 15 15 14 14 12 11 10 9 8 8 8 8 8 8 8 9 9 9 9 9 9 11 11 11 11 12 12 13 14 15 16 16 16 15 15 14 12 12 14 14 14 14 13 12 12 12 13 15 17
22 20 20 22 24 24 25 25 24 24 24 25 26 27 28 28 29 28 28 26 24 22 21 19 18 17 17 17 16 15 15 15 16 16 15 16 16 16 16 15 14 12 11 10 10 9 9 10 10 10 10 11 11 11 11 10 11 12 12 12 12 13 14 14 15 15 16 18 18 18 18 17 14 13 15 16 16 16 15 14 13 13 14 15 17
22 21 21 22 22 22 24 25 25 25 25 26 26 27 27 28 28 29 28 28 27 25 23 21 20 19 19 18 17 16 16 17 18 17 17 16 16 16 17 16 15 14 13 13 12 12 11 12 12 12 12 13 13 14 13 13 12 13 13 13 13 14 15 16 16 16 17 19 19 20 20 20 18 16 15 16 17 17 17 15 15 15 16 17 19
24 22 21 19 18 19 21 23 24 26 27 27 28 28 27 27 27 27 28 28 28 27 25 24 23 22 20 19 18 18 18 19 19 19 19 18 17 17 17 17 17 16 16 15 15 15 14 14 14 14 14 14 14 15 15 15 15 14 14 14 14 15 16 17 18 18 18 19 20 21 22 22 21 20 17 17 18 18 18 17 17 17 17 19 21
28 26 24 21 20 19 19 20 22 24 26 27 28 28 27 27 27 27 28 28 28 27 26 26 25 24 23 22 21 20 20 20 20 20 20 20 19 19 18 18 18 18 18 17 17 17 17 16 16 16 15 15 15 16 16 16 16 16 15 15 16 16 16 18 19 19 19 20 20 22 23 23 23 23 21 19 19 20 19 19 19 19 18 20 23
32 31 28 25 24 22 20 20 21 22 23 25 26 28 28 28 28 28 28 27 27 27 27 27 27 26 25 25 24 22 22 21 21 21 21 21 21 21 20 19 19 19 19 19 19 20 20 19 18 18 18 17 17 17 17 17 16 17 17 17 17 16 17 18 20 20 20 21 21 22 23 23 24 25 24 22 21 21 21 21 22 21 20 21 24
34 31 29 27 26 25 24 24 23 22 22 23 24 26 27 28 28 28 28 27 27 27 27 27 27 27 27 27 25 24 24 23 23 22 22 22 22 22 22 22 21 21 21 21 22 22 22 21 21 20 20 20 19 18 17 17 16 17 18 19 18 17 18 19 20 21 22 22 22 22 23 23 24 25 26 25 24 24 22 23 24 23 21 22 24
34 32 32 31 30 30 31 29 27 24 23 23 23 24 26 27 28 28 28 27 27 26 26 26 27 27 27 27 26 26 26 26 25 24 24 24 23 23 23 23 23 23 23 23 24 23 23 23 23 23 23 23 22 19 17 16 17 17 18 19 19 19 20 20 20 21 22 24 24 23 23 23 25 25 26 27 27 26 25 26 27 26 24 23 24
34 34 35 35 36 36 36 34 31 29 27 25 24 25 25 26 27 28 28 27 27 26 27 27 27 27 27 27 27 27 27 27 27 27 26 26 25 24 23 24 24 24 24 25 25 25 24 24 25 25 25 26 24 22 19 17 17 18 18 19 19 20 22 22 21 20 22 24 25 25 24 24 25 26 27 27 28 28 28 28 29 28 26 26 26
35 36 37 39 41 41 38 35 33 31 30 28 27 26 26 26 27 28 28 28 27 27 27 26 26 26 26 26 27 27 28 28 29 28 28 28 27 25 24 24 24 24 25 26 27 27 26 26 27 27 28 28 26 24 21 18 17 19 19 19 20 23 24 23 22 21 22 24 26 27 26 25 25 26 27 28 28 29 29 29 30 29 28 27 28
36 36 37 42 44 42 38 35 32 30 30 31 30 29 27 27 27 28 28 28 27 26 26 25 25 25 26 26 26 26 27 28 28 29 30 29 29 27 26 24 23 24 26 28 29 29 28 28 29 29 29 29 28 26 23 19 18 19 20 21 22 24 25 24 23 23 23 24 26 28 28 27 27 27 28 28 28 29 30 30 30 30 29 28 29
37 34 35 38 41 41 39 34 30 29 30 32 33 31 30 29 28 28 28 27 27 26 25 24 24 24 25 26 26 26 27 28 28 29 30 30 30 29 27 25 24 24 26 28 28 29 29 29 30 31 31 30 29 27 24 22 20 20 22 23 24 25 25 24 24 25 25 25 26 28 29 29 29 28 28 28 28 29 29 30 30 30 30 30 31
35 34 34 35 35 37 37 33 30 29 31 33 34 33 31 31 30 29 28 28 27 26 25 24 23 23 24 24 25 26 26 27 28 29 30 30 29 29 27 26 26 26 27 27 27 28 29 30 32 32 32 30 29 27 25 23 22 21 22 24 25 25 25 24 24 25 25 26 27 28 29 30 29 29 28 28 27 28 28 29 30 31 31 32 32
34 35 34 32 30 31 32 32 32 32 32 33 34 33 33 32 31 30 29 28 27 26 24 24 23 23 23 23 24 25 26 27 28 29 29 29 29 29 28 27 28 28 27 26 27 29 30 32 33 33 31 30 29 28 25 23 21 21 23 25 26 26 25 25 26 26 26 27 27 28 29 29 29 28 28 27 26 26 27 27 29 31 32 32 33
37 38 35 33 31 30 30 31 32 32 33 34 34 34 34 33 32 32 31 30 28 26 25 24 24 24 24 24 24 24 26 27 28 28 29 29 29 29 28 28 29 29 27 27 27 29 31 32 32 32 31 30 29 27 25 22 21 21 23 24 24 24 24 24 25 26 26 26 27 27 28 29 29 27 26 26 25 25 26 27 28 29 31 32 33
40 40 38 36 35 34 33 33 33 32 33 34 34 34 35 35 35 33 32 31 29 27 25 25 25 24 24 24 24 25 26 27 28 29 29 30 29 29 29 29 29 28 27 27 29 30 32 32 32 31 31 30 28 26 23 21 21 21 23 23 23 23 23 24 24 25 25 26 27 27 27 27 27 26 25 25 24 24 26 27 28 28 30 31 32
43 41 39 39 38 38 38 37 36 35 34 34 34 34 35 37 37 36 34 33 30 28 27 26 26 25 24 24 24 25 27 28 28 29 30 31 30 30 30 29 29 28 28 28 29 31 32 32 31 31 29 27 25 23 21 20 20 22 23 24 24 24 24 24 23 23 23 24 25 26 27 26 25 25 25 25 25 25 27 29 29 30 31 32 32
46 45 44 43 42 41 41 39 37 36 35 34 34 34 36 37 38 38 36 34 31 28 27 27 26 25 24 24 24 26 28 29 29 30 31 31 30 30 30 29 29 28 28 29 30 32 32 32 31 29 26 23 21 19 20 21 22 23 24 25 24 24 23 22 21 20 20 21 22 23 25 25 26 26 27 28 28 28 28 30 31 32 32 33 34
46 48 48 47 46 45 44 41 38 36 36 35 34 34 35 36 37 37 35 34 32 30 29 28 27 25 24 25 26 27 29 30 30 30 31 31 31 31 31 31 30 29 29 30 32 32 32 30 28 25 22 20 20 20 21 23 23 24 24 24 23 23 22 21 20 20 20 21 21 22 22 23 24 25 26 28 28 29 29 31 31 32 33 34 36
46 48 49 49 48 47 46 43 40 39 38 36 35 34 33 33 34 34 35 35 34 33 32 30 28 26 27 29 29 29 30 31 31 32 33 33 34 34 33 32 31 29 30 31 32 31 29 28 26 23 21 21 22 23 23 23 23 23 23 22 22 21 21 21 22 22 23 23 23 24 24 25 25 26 27 28 28 28 29 31 32 33 34 36 38
48 49 50 50 49 49 48 46 43 41 40 38 36 35 33 33 33 34 35 36 36 35 35 32 29 29 32 32 31 30 30 33 35 36 36 36 36 36 35 33 31 30 31 31 30 28 27 26 24 23 23 23 24 24 24 24 24 23 23 22 22 22 22 23 24 25 26 26 27 28 29 29 29 30 30 31 31 32 33 34 35 37 38 39 41
52 51 51 51 51 50 50 49 47 45 43 41 39 38 37 36 34 34 35 36 35 35 35 33 31 33 35 34 33 32 32 34 37 38 37 38 38 37 35 32 31 31 31 30 29 28 27 25 24 24 25 25 24 24 25 24 24 24 24 24 24 25 25 26 27 28 28 29 30 31 32 33 33 33 34 34 35 35 37 38 39 40 40 40 41
54 53 52 51 51 51 51 50 49 48 46 45 43 42 41 39 36 34 35 35 34 35 35 34 34 35 36 35 34 32 32 35 37 38 39 39 37 36 35 33 32 32 31 29 28 27 26 25 25 26 26 26 26 26 26 25 25 26 26 26 27 28 28 28 29 30 30 32 33 34 35 36 36 36 36 37 37 38 40 41 41 40 39 38 38
55 55 53 52 52 51 51 50 50 49 48 48 47 46 45 42 39 36 36 36 36 36 36 36 37 37 36 36 35 33 32 35 37 39 39 39 37 36 36 35 33 31 29 28 27 26 26 26 27 27 27 27 27 27 26 27 28 28 29 29 29 30 30 30 30 31 32 34 35 36 37 38 38 38 38 39 40 41 41 41 40 38 37 36 36
54 54 53 52 51 51 51 51 51 50 49 49 50 50 48 46 43 41 39 38 39 39 39 38 38 38 36 37 36 34 34 36 38 39 39 38 38 37 36 34 32 30 28 27 26 26 27 28 28 28 28 28 28 28 28 29 29 30 30 30 30 31 32 32 32 34 35 36 37 38 38 39 40 40 41 41 41 41 40 38 37 36 35 35 35
52 51 51 52 52 53 52 52 51 50 49 49 51 52 51 48 45 43 43 42 41 40 38 36 36 37 38 38 38 36 36 38 39 39 38 38 38 38 36 34 32 29 28 27 27 27 28 29 29 29 29 29 29 30 30 30 30 30 31 31 32 32 33 34 36 38 39 40 40 40 40 41 42 42 42 42 41 39 36 35 35 35 35 35 36
49 49 50 52 53 52 52 51 51 52 51 50 50 52 52 50 47 45 45 44 42 40 39 38 38 39 41 41 40 37 37 38 39 38 39 39 39 38 37 34 32 30 29 29 29 30 30 30 30 30 31 31 31 31 31 31 32 33 33 33 34 35 36 37 39 41 42 42 42 42 42 43 43 43 41 40 38 36 35 35 35 35 36 36 37
47 47 48 51 52 52 51 50 51 52 51 50 51 51 51 50 47 45 44 45 43 41 40 41 43 44 45 44 42 40 39 38 39 40 40 40 40 38 37 35 33 32 32 31 31 32 32 32 32 32 33 33 33 32 33 34 35 36 36 37 38 39 40 41 42 42 43 42 42 42 43 43 43 41 39 37 36 36 36 35 36 37 37 38 38
47 46 47 49 49 48 46 45 46 50 51 51 51 50 48 48 47 44 43 45 45 43 42 43 46 48 48 47 45 44 41 40 40 41 42 41 40 38 36 35 35 34 34 34 34 34 34 34 34 34 34 34 34 35 36 37 38 38 39 40 42 42 43 43 44 43 43 43 42 42 42 41 40 38 37 36 36 37 36 36 36 38 39 39 39
47 46 47 49 49 48 46 43 43 46 49 50 51 50 48 48 49 47 46 47 48 46 43 44 47 51 52 52 50 47 44 42 42 42 42 42 40 37 36 36 36 36 35 35 36 36 35 35 35 34 35 36 37 38 39 40 40 41 42 44 45 45 45 45 45 44 43 42 41 40 38 37 36 36 36 36 36 37 37 38 38 39 40 40 39
48 46 47 49 49 48 47 45 43 43 44 46 48 50 50 50 50 49 48 49 51 49 46 47 51 55 57 55 53 49 46 43 42 42 41 40 39 37 36 36 37 36 36 36 36 36 36 36 36 37 37 38 39 40 41 42 44 45 45 46 46 46 46 46 45 43 42 40 39 37 36 35 35 35 35 36 38 39 39 40 39 40 39 39 38
50 47 47 49 49 47 46 44 43 42 41 40 42 46 49 49 49 49 49 50 51 51 50 52 56 60 60 57 53 49 46 44 42 41 40 40 39 37 37 37 37 36 36 36 37 37 37 37 37 38 39 40 41 42 43 45 46 47 48 49 49 49 48 47 45 43 40 38 36 36 35 35 36 36 36 38 39 40 40 39 39 38 38 39 40
51 48 48 48 47 45 43 43 42 41 39 39 40 42 45 46 46 47 49 51 53 54 54 56 60 64 64 60 54 49 47 45 44 43 42 41 39 38 37 37 37 36 37 37 37 37 37 38 39 40 41 42 43 44 45 46 47 48 50 50 48 46 46 45 44 41 38 36 36 37 37 37 38 38 39 40 40 40 40 40 40 40 41 42 43
50 50 51 48 46 44 42 41 41 41 40 40 41 42 44 45 46 46 49 51 53 55 57 59 62 66 67 63 57 51 47 46 45 45 44 41 39 38 37 36 36 36 37 37 37 37 38 39 41 43 44 44 45 45 46 46 47 48 50 48 43 40 41 42 41 39 38 37 38 38 37 37 38 40 40 41 41 41 42 42 43 44 46 46 47
51 51 53 51 48 46 44 41 40 40 40 40 42 43 44 45 46 48 50 52 53 55 58 61 63 65 65 64 60 53 48 47 47 44 42 40 39 38 37 37 37 37 38 38 38 39 40 42 44 44 45 45 45 44 45 46 46 48 50 50 47 45 44 42 40 38 37 37 36 36 36 37 39 41 42 42 43 43 44 45 46 47 48 49 50
52 49 52 53 51 48 46 43 40 40 41 42 42 43 45 47 48 49 50 51 52 54 58 63 67 67 66 66 62 54 49 48 47 43 41 41 40 39 39 39 39 39 39 39 40 41 42 43 43 43 42 43 43 43 44 45 46 47 48 48 47 46 44 41 39 39 39 38 38 38 39 40 41 42 43 44 45 46 47 48 49 50 51 51 52
55 49 49 53 51 48 46 45 41 38 40 42 43 43 46 48 49 49 50 52 55 56 59 64 68 68 68 67 63 56 50 48 44 41 41 41 40 40 40 41 41 41 41 41 41 42 42 41 41 41 41 42 43 44 44 44 44 44 43 43 42 41 40 39 39 39 39 39 40 41 42 42 43 44 45 46 47 48 49 50 51 53 54 55 55
59 53 49 50 50 47 47 48 43 36 35 39 42 42 43 45 46 48 49 53 56 59 62 65 66 67 68 67 61 53 49 47 42 39 39 39 40 40 41 42 42 42 43 43 42 42 42 41 41 42 43 43 43 43 42 41 40 39 39 39 39 39 39 39 39 39 40 41 42 43 44 44 45 46 48 49 50 51 52 54 55 56 57 58 59
60 56 52 52 50 48 47 50 47 40 36 37 38 37 38 41 44 45 50 56 60 59 59 60 61 63 66 65 57 50 47 45 42 39 37 38 39 41 42 43 44 45 46 46 44 43 42 43 43 44 45 44 43 42 41 40 39 39 39 40 41 41 42 42 43 43 44 44 45 46 47 48 49 50 51 52 54 55 56 57 58 60 61 62 63
59 55 52 52 54 52 49 49 49 45 40 38 38 36 35 36 35 33 37 48 55 53 49 47 47 48 50 52 50 47 44 43 41 38 36 37 39 40 41 43 45 45 46 45 44 44 44 44 44 45 45 45 44 43 43 42 42 42 42 43 44 45 46 46 47 47 48 48 49 50 51 52 54 55 56 57 58 59 61 62 63 65 66 67 69
59 54 49 47 51 55 54 51 51 51 48 45 43 41 38 36 34 31 31 35 39 40 39 38 38 39 42 47 47 44 42 41 41 39 37 37 39 41 43 44 45 45 45 45 44 45 45 45 45 45 45 45 45 45 45 45 46 46 46 47 48 49 50 51 51 52 52 53 54 55 56 57 59 60 61 62 63 65 66 67 69 70 71 73 74
59 57 51 45 45 51 54 52 50 51 52 52 50 48 44 40 39 40 39 37 35 35 37 39 39 39 44 48 46 42 40 40 40 40 40 41 43 45 47 47 47 46 46 46 46 47 47 47 47 47 47 47 48 48 49 49 49 50 50 51 52 53 54 55 56 56 57 58 59 60 61 62 63 64 66 67 68 69 71 72 73 75 76 78 78
Wind_Direction
214 214 217 221 221 220 220 218 213 211 208 202 199 201 203 201 201 203 206 212 216 219 221 222 223 225 229 234 232 142 125 145 152 151 146 143 138 136 131 125 119 114 111 109 105 102 102 106 118 133 143 146 145 147 149 151 151 152 155 156 155 154 149 145 142 137 133 133 133 131 120 96 79 90 94 57 41 38 34 33 28 20 10 6 5
210 210 213 218 222 223 224 223 218 212 209 207 206 205 205 205 203 201 203 207 214 222 228 231 231 231 233 236 231 205 162 159 160 157 152 148 143 139 136 131 127 121 116 115 113 111 108 106 111 124 136 144 149 153 156 158 160 161 164 168 171 172 172 167 163 158 154 154 154 153 145 118 81 78 81 31 33 35 34 31 22 11 2 359 359
205 206 206 210 217 221 223 225 223 218 212 210 211 210 209 209 206 204 204 204 207 215 225 232 236 236 236 234 225 210 185 171 168 163 158 155 149 145 141 136 132 128 123 120 119 118 118 114 113 119 127 137 146 154 161 165 170 172 173 176 181 186 189 189 190 196 202 198 192 188 184 172 159 195 281 313 33 38 28 15 5 359 353 352 355
204 204 203 205 212 217 221 225 225 223 219 215 215 214 214 213 211 210 209 207 207 212 218 227 234 236 236 234 225 213 199 183 176 170 165 162 157 151 147 143 138 134 129 125 121 121 124 125 125 124 128 139 146 153 162 171 181 186 186 186 190 195 200 202 204 212 227 238 238 230 217 203 203 229 254 262 263 325 354 353 345 340 342 347 351
204 204 203 204 208 212 218 222 224 224 222 221 219 218 218 216 214 214 213 211 212 214 216 222 230 234 235 235 228 220 211 196 184 178 172 168 165 158 154 150 146 142 137 133 127 124 126 130 135 142 151 163 168 168 172 178 187 197 201 203 203 204 208 211 213 220 232 244 250 250 239 221 217 232 242 243 252 283 307 321 320 320 331 341 347
204 204 205 206 206 209 213 217 220 221 222 222 222 221 221 219 218 217 215 214 214 216 218 221 227 232 234 236 232 225 219 208 195 187 180 174 170 166 161 158 155 153 150 149 147 141 139 140 150 172 189 210 223 223 218 206 200 204 209 213 215 214 216 219 222 226 233 245 254 256 250 235 225 232 241 242 239 257 283 304 312 315 324 332 338
203 204 206 207 207 208 211 213 215 217 219 220 221 221 221 221 220 219 217 215 214 215 219 223 227 230 231 233 234 228 223 217 206 198 191 182 176 172 169 166 163 164 165 169 175 180 182 182 191 207 214 222 228 237 245 242 235 228 222 221 222 222 223 225 229 232 236 244 253 257 256 245 232 231 239 243 244 251 269 289 305 313 318 321 326
204 204 205 207 207 208 210 211 212 214 216 218 219 220 220 221 222 221 219 217 214 214 217 221 227 230 230 231 234 231 226 223 215 206 201 194 184 178 177 175 173 173 176 182 192 204 214 219 225 233 238 237 235 237 243 248 249 246 239 236 234 232 230 228 231 236 239 244 251 257 261 254 242 236 238 241 245 252 262 275 291 302 305 308 316
206 205 206 207 208 209 210 210 211 213 215 218 219 219 220 220 221 222 221 218 216 214 215 219 225 231 232 231 231 231 228 225 221 214 209 205 196 187 183 182 183 184 186 193 203 212 220 227 234 242 250 254 252 249 248 250 252 252 249 246 245 243 241 237 235 237 240 244 248 253 259 261 252 242 240 240 244 251 260 268 276 284 289 296 305
206 205 206 207 209 210 210 210 211 212 213 215 216 217 218 219 220 221 221 219 217 216 215 217 221 227 231 232 230 228 227 225 224 220 215 212 206 199 193 191 192 193 196 201 210 220 228 236 242 248 252 257 261 261 261 258 257 257 254 250 250 250 250 247 243 241 240 243 246 248 254 261 257 245 240 241 243 249 257 265 270 274 280 287 295
206 204 205 207 208 210 211 211 211 211 211 212 213 215 216 217 219 219 220 220 219 218 217 216 218 221 226 230 229 227 225 225 225 224 222 218 213 207 204 203 201 202 206 211 217 224 230 237 243 248 252 257 261 264 266 265 264 264 262 258 254 254 254 253 251 247 244 244 245 246 250 257 258 249 243 242 243 247 253 260 266 271 275 279 287
209 207 208 208 207 208 210 210 211 211 211 212 214 215 216 217 218 219 220 220 220 220 218 217 217 219 222 226 228 227 226 226 226 226 225 224 220 215 212 211 211 213 216 220 224 228 232 235 239 244 250 257 261 264 267 268 267 268 269 268 263 257 256 257 257 254 250 247 246 246 249 253 257 254 249 246 246 248 252 257 262 267 271 275 279
210 211 212 212 212 213 212 211 212 212 213 214 215 217 217 217 217 218 218 219 220 220 219 218 219 219 220 222 223 225 226 228 228 228 228 228 227 224 220 218 219 222 225 227 229 232 236 238 240 243 248 253 258 261 264 266 268 269 271 273 271 264 259 258 259 260 258 254 251 250 250 251 254 257 255 252 252 253 254 257 260 264 269 273 277
206 207 209 210 214 218 218 217 216 216 216 216 217 217 217 216 217 218 218 219 219 219 219 220 220 220 220 220 221 222 224 227 229 229 229 230 229 229 228 226 225 226 230 232 234 235 237 240 242 245 249 253 256 258 259 260 263 267 271 274 274 272 268 262 260 261 262 261 258 256 255 252 251 256 259 257 257 259 260 262 264 265 268 273 276
207 207 207 207 210 214 218 219 218 217 218 218 217 217 216 216 217 219 220 219 218 216 217 218 220 221 220 220 220 221 222 225 228 229 230 230 230 230 231 231 230 230 231 234 237 238 238 240 243 246 249 253 256 259 260 260 261 264 269 271 273 276 275 269 264 263 265 265 263 262 262 259 254 254 258 259 260 262 265 267 268 269 271 273 276
211 212 212 211 211 213 216 218 216 215 216 217 219 219 217 217 216 217 220 220 218 216 215 215 218 221 221 221 221 220 221 224 226 228 229 229 229 229 229 230 231 232 232 235 237 239 240 241 243 246 248 251 254 257 260 261 263 265 268 271 273 275 275 271 267 265 266 267 266 265 266 266 262 258 257 258 259 262 265 268 270 273 274 275 278
211 215 218 218 216 214 213 213 213 213 213 213 217 219 219 217 216 216 217 219 219 217 214 212 213 217 221 223 222 221 222 224 225 227 229 230 229 228 228 229 230 231 233 236 238 240 240 241 244 245 246 248 251 255 257 258 260 263 266 269 272 274 273 271 269 266 265 266 267 267 267 268 267 264 260 258 258 260 262 265 269 273 275 276 279
213 217 221 223 221 219 215 210 209 212 212 210 211 215 218 218 217 215 214 216 218 218 215 213 211 213 217 221 223 222 223 224 225 226 229 232 231 229 228 228 229 229 232 235 239 241 241 241 243 245 246 247 249 251 254 255 257 261 264 267 269 271 270 269 270 269 266 264 265 266 266 265 266 266 264 262 260 260 261 263 267 272 276 278 281
218 221 225 226 225 223 216 208 205 208 211 211 210 211 214 216 217 216 214 214 217 218 218 216 213 212 214 218 223 225 226 227 228 228 230 233 234 233 230 229 229 229 231 234 238 241 242 242 244 245 245 247 248 249 252 252 252 256 263 266 267 267 267 269 271 271 268 264 263 263 263 263 264 264 265 265 264 263 263 264 267 271 276 280 282
218 223 228 227 223 219 213 207 205 206 209 212 212 211 211 214 217 217 215 214 216 219 220 219 216 214 213 214 219 224 228 231 232 232 232 233 236 237 235 232 230 230 232 234 237 239 241 243 245 245 246 247 247 248 251 252 248 248 255 262 265 267 269 270 271 271 269 266 263 261 261 261 263 265 266 267 268 269 269 269 271 275 278 280 282
214 219 222 220 214 211 210 209 210 209 210 214 215 212 212 214 216 217 215 214 216 218 220 220 219 218 217 216 217 221 226 231 234 236 236 235 235 237 238 236 234 232 232 235 237 239 240 241 243 246 247 248 247 247 249 251 249 247 249 254 260 265 270 271 270 269 270 270 268 265 263 263 263 266 269 272 275 277 278 277 276 277 279 280 283
213 216 215 212 209 210 212 214 217 216 214 216 217 215 214 214 216 217 216 214 215 216 219 221 222 222 222 221 220 221 224 228 233 238 240 240 238 238 237 237 237 235 233 234 237 238 238 238 241 244 247 248 248 248 249 251 253 252 251 252 256 261 265 267 267 267 267 268 269 269 268 266 266 268 271 275 280 284 285 283 280 279 279 281 283
217 216 215 213 210 212 217 221 223 221 219 220 220 218 218 217 217 218 217 216 215 215 217 221 224 226 227 226 225 225 225 227 231 236 240 243 243 241 239 238 237 236 234 234 234 235 235 235 238 243 246 246 247 248 251 253 256 254 252 253 256 259 262 264 264 264 265 266 267 269 270 270 270 269 271 274 280 285 288 288 286 284 283 283 285
216 216 218 219 216 215 218 221 222 221 221 222 222 220 221 221 220 220 219 217 215 214 216 221 225 228 230 231 231 230 230 229 230 232 236 239 242 243 241 240 239 237 235 233 233 232 233 234 237 240 242 243 245 248 252 254 254 252 252 255 258 260 262 263 263 264 265 265 266 268 270 271 272 272 272 274 278 283 287 289 289 287 287 286 286
212 214 217 218 215 214 215 217 219 221 222 223 224 223 223 223 224 224 223 221 218 215 217 221 225 228 230 232 234 235 234 233 231 232 234 235 237 241 242 241 241 240 236 233 232 231 232 235 237 238 239 241 244 248 251 251 250 249 252 255 258 260 262 264 265 266 265 265 266 268 270 272 275 275 274 273 274 276 280 283 284 285 286 286 286
210 211 212 212 211 212 214 217 220 224 225 225 225 225 225 225 225 226 226 226 223 220 220 223 225 227 229 232 236 238 238 236 233 233 235 236 236 238 240 241 241 239 236 233 232 232 234 235 236 237 239 243 246 248 248 246 244 246 250 254 258 260 262 263 265 267 267 267 268 269 271 273 276 277 276 275 274 274 275 278 281 283 283 284 284
210 210 209 209 211 213 215 217 221 225 228 228 227 225 225 225 226 227 229 229 228 226 226 228 228 227 228 232 236 239 239 238 234 234 237 239 239 239 240 239 239 237 234 232 231 232 234 235 236 238 242 245 246 244 242 242 243 247 251 254 256 259 260 263 267 269 271 273 274 274 274 275 275 276 277 277 277 278 279 280 281 282 283 283 284
211 211 211 211 213 214 216 217 219 223 227 230 230 228 226 226 227 229 230 231 231 231 231 232 232 230 230 233 235 236 238 237 235 234 235 238 240 240 239 237 236 233 230 229 230 232 234 236 237 239 241 241 240 238 239 241 246 250 252 254 256 258 261 265 270 274 277 280 282 283 283 283 283 282 282 281 282 283 283 283 283 283 283 284 284
213 213 214 214 214 215 216 216 218 221 225 229 231 231 229 228 228 228 229 230 231 232 233 233 234 232 232 234 234 234 235 236 234 232 231 233 237 239 238 236 233 231 229 229 231 233 234 235 236 236 234 233 233 235 238 242 246 250 253 256 260 264 268 272 275 278 281 284 287 288 288 288 289 288 288 288 287 286 286 286 286 286 287 287 288
217 215 215 215 215 215 215 215 217 220 224 227 230 231 232 231 229 228 228 229 230 232 233 233 233 234 234 235 235 234 233 233 233 232 231 233 237 239 238 235 232 230 230 231 232 231 231 231 232 230 229 230 232 234 237 241 245 249 253 258 263 267 271 275 277 279 282 285 287 288 288 288 289 289 290 290 289 289 288 288 288 289 289 289 290
219 218 217 217 216 216 215 216 216 218 221 224 227 230 232 233 231 229 228 229 230 233 235 234 234 235 236 237 237 236 233 233 235 236 236 237 239 240 238 234 231 230 230 230 229 228 227 226 226 226 228 230 232 234 237 241 246 251 255 260 264 267 270 273 275 277 280 282 283 285 286 288 288 289 289 290 289 289 289 288 288 288 288 289 289
219 219 219 219 219 218 218 218 217 218 219 221 223 226 230 233 233 231 230 230 230 232 234 235 236 237 238 239 240 239 237 235 236 238 239 240 240 239 237 234 231 229 230 230 227 225 224 223 224 227 229 230 231 234 238 243 248 253 257 261 264 266 269 271 274 278 280 282 284 286 286 286 286 286 286 286 287 287 288 289 290 290 291 291 291
218 219 220 221 221 221 221 221 221 220 220 220 221 222 226 229 231 231 230 231 231 232 231 233 236 238 239 241 243 243 241 237 235 237 239 240 239 238 236 234 232 231 231 228 225 222 222 223 225 228 229 231 233 237 241 246 251 255 259 261 264 266 268 271 277 282 285 286 286 287 286 286 285 284 284 284 286 288 290 291 293 293 293 293 292
217 218 221 223 223 224 223 223 224 224 224 224 225 224 223 224 224 225 226 227 230 231 231 232 235 238 241 243 244 243 241 237 235 235 237 239 240 239 237 236 235 233 229 225 222 222 223 224 226 228 230 233 236 241 245 249 254 258 261 264 266 268 271 276 281 285 285 286 286 287 287 287 286 285 285 286 288 290 291 292 291 290 290 291 292
219 220 222 223 224 225 225 224 225 225 226 228 229 229 228 228 227 227 228 229 230 231 232 234 236 238 239 241 242 242 240 237 235 234 235 236 238 238 238 237 235 231 226 222 221 222 224 226 228 230 234 238 242 246 250 254 259 263 266 268 269 272 274 278 281 283 284 285 287 289 289 289 288 288 288 290 291 291 290 289 289 290 291 293 295
222 222 225 226 226 226 226 226 226 227 226 227 228 229 230 233 232 229 230 232 233 233 235 239 240 238 236 235 236 238 238 236 235 234 234 235 236 236 236 235 232 228 225 223 224 225 227 230 233 236 240 244 248 252 256 261 264 267 269 270 272 273 276 277 279 281 283 286 288 289 289 288 287 288 290 291 290 288 288 289 290 291 293 294 294
224 226 229 230 230 228 227 228 230 231 230 229 229 229 231 235 235 231 231 234 235 233 235 239 242 241 238 234 232 233 234 235 234 234 233 233 234 234 232 231 229 228 227 227 228 230 233 237 239 242 245 248 252 256 261 264 267 269 270 271 273 274 276 278 279 281 283 285 285 285 285 285 286 288 289 289 288 287 288 291 291 291 292 292 292
227 229 232 235 234 231 229 231 236 239 236 232 229 228 229 234 237 236 234 235 236 234 234 238 242 243 242 237 232 229 230 231 233 233 232 232 232 230 228 227 228 229 230 232 234 236 238 241 244 247 250 253 257 260 262 264 267 269 271 272 274 276 277 279 280 281 281 282 282 282 282 283 285 286 286 286 286 286 288 289 289 289 290 291 292
229 232 236 238 237 233 231 233 237 239 239 237 234 230 228 230 233 232 232 235 237 235 233 237 240 243 243 241 235 230 228 229 232 233 232 231 230 228 227 227 229 230 232 235 238 241 243 246 249 252 254 257 259 262 264 266 268 270 272 274 275 276 277 277 278 279 280 281 281 282 282 282 282 281 281 282 283 284 286 288 289 290 291 292 293
229 234 239 242 241 237 234 234 235 235 238 241 240 235 232 232 231 228 228 234 237 235 233 236 240 242 241 239 235 231 229 229 231 232 231 230 229 229 228 230 232 233 235 237 241 243 246 249 252 254 256 259 261 263 266 269 270 271 272 273 274 274 275 276 278 279 280 280 280 280 280 280 279 279 279 281 284 286 288 290 291 291 292 293 294
228 233 239 243 245 243 239 237 236 235 237 241 242 238 236 235 233 231 231 233 236 234 232 233 238 241 240 236 233 231 228 226 225 225 226 227 228 229 230 231 233 235 237 239 242 245 247 250 253 256 258 260 262 265 267 269 270 271 272 272 273 274 275 275 277 277 278 278 277 277 278 279 278 278 279 282 285 287 288 289 290 291 291 292 292
229 233 238 241 243 244 242 238 237 236 236 237 238 238 237 235 233 233 234 234 235 233 230 230 235 238 238 235 232 229 225 220 218 219 223 226 228 228 229 231 233 236 239 241 244 247 250 253 255 258 260 262 264 266 268 269 270 271 271 271 272 273 273 273 274 276 277 276 274 273 274 276 277 278 280 281 283 285 286 288 290 292 292 293 293
234 235 237 238 240 241 240 238 237 236 235 234 233 234 235 234 233 234 235 235 234 232 228 229 234 237 236 232 230 228 223 218 216 218 223 226 227 227 228 232 235 237 240 243 246 249 252 255 257 259 260 262 263 265 266 267 268 269 269 270 271 271 272 272 274 274 274 274 273 273 275 277 278 278 280 281 283 286 288 290 292 293 294 295 296
239 239 238 238 239 239 238 238 238 236 236 236 235 234 234 234 235 235 236 237 237 234 230 230 234 236 234 229 227 225 222 216 214 216 220 223 224 226 229 232 236 239 241 244 247 250 253 256 257 258 259 260 261 262 263 264 265 266 267 268 269 270 271 272 273 272 271 273 275 277 279 280 279 279 281 284 286 289 291 292 293 294 295 296 296
239 240 240 240 240 240 239 240 241 239 236 237 238 239 238 237 238 238 238 239 238 235 231 230 232 234 233 229 227 225 221 215 213 215 218 220 222 226 230 233 237 240 242 244 248 251 254 255 256 256 256 257 259 261 262 263 263 263 264 265 267 268 269 270 270 270 271 272 273 274 276 278 279 281 284 287 289 290 292 293 293 294 295 296 296
237 239 239 239 241 242 240 240 243 243 240 238 240 242 241 239 239 240 240 239 239 237 233 231 233 234 232 229 227 224 217 211 210 214 218 220 224 229 234 237 240 241 243 247 250 252 253 253 253 253 254 255 258 260 261 261 261 261 262 264 266 268 270 272 273 275 275 276 277 278 280 282 284 286 288 290 291 292 293 294 295 295 296 296 297
238 240 240 239 239 241 240 239 242 244 242 239 240 243 245 244 244 243 242 240 237 235 232 232 234 234 232 229 227 221 213 210 213 218 220 223 228 234 238 241 243 244 246 250 251 250 250 250 250 251 252 254 256 257 258 259 260 262 265 267 270 273 276 278 279 281 282 284 285 286 287 289 290 292 293 293 294 294 294 295 295 295 295 296 296
239 241 241 240 237 237 238 239 240 241 242 241 241 244 248 248 244 244 245 242 237 233 232 234 237 238 237 233 228 220 213 213 218 222 223 226 233 238 241 243 244 246 249 250 249 248 248 248 249 251 253 254 255 256 258 260 263 266 269 272 274 277 279 280 282 283 285 286 287 288 290 291 292 292 293 293 294 294 294 295 294 294 295 295 295
237 239 242 241 237 235 237 239 239 239 241 243 243 244 247 243 236 235 238 235 230 229 231 234 235 235 232 226 220 216 215 219 224 228 230 233 237 240 243 244 245 247 248 247 246 246 247 249 251 254 256 258 259 259 261 263 266 268 271 272 274 277 278 280 281 283 284 285 286 287 289 290 290 291 291 292 293 293 294 294 294 295 295 295 296
235 237 241 241 236 235 238 242 243 242 243 242 241 242 244 243 242 244 245 238 230 227 224 220 218 216 212 209 211 217 223 227 232 236 239 240 241 242 244 247 248 249 248 246 245 246 248 250 254 257 260 262 264 264 265 267 268 270 272 273 275 277 278 280 281 282 283 285 286 287 288 289 290 290 291 292 292 293 294 294 295 295 296 296 296
236 236 239 241 239 236 237 240 243 243 242 240 239 240 243 244 246 249 251 251 247 236 222 214 214 214 210 208 213 221 227 231 235 238 241 242 243 244 246 248 249 249 247 246 246 247 249 252 256 259 261 263 265 266 267 269 270 271 272 274 275 277 278 279 281 282 283 284 286 287 288 289 290 290 291 292 292 293 293 294 295 295 296 296 296
Height
5924 5927 5929 5931 5933 5936 5937 5939 5940 5941 5942 5944 5945 5946 5947 5948 5950 5951 5952 5953 5953 5954 5955 5956 5957 5958 5958 5959 5960 5961 5962 5963 5963 5964 5964 5965 5965 5966 5966 5966 5967 5967 5967 5967 5967 5967 5967 5968 5968 5968 5968 5968 5968 5969 5969 5969 5970 5970 5971 5971 5972 5972 5972 5972 5972 5972 5972 5972 5972 5972 5972 5971 5971 5971 5971 5970 5970 5969 5968 5967 5966 5965 5965 5964 5963
5922 5924 5927 5929 5932 5934 5936 5938 5939 5940 5942 5943 5944 5945 5946 5947 5948 5950 5951 5952 5953 5954 5954 5955 5957 5958 5958 5959 5960 5961 5962 5963 5963 5964 5965 5965 5965 5966 5966 5967 5967 5968 5968 5968 5968 5968 5968 5968 5968 5969 5969 5969 5969 5969 5969 5970 5970 5970 5971 5971 5972 5972 5972 5972 5972 5972 5972 5972 5972 5972 5972 5971 5971 5971 5971 5970 5970 5969 5968 5967 5967 5966 5965 5964 5963
5920 5922 5924 5926 5929 5931 5934 5936 5938 5940 5941 5942 5943 5944 5945 5946 5947 5948 5949 5951 5952 5953 5954 5955 5956 5957 5957 5958 5959 5960 5961 5962 5963 5964 5965 5965 5966 5966 5966 5967 5967 5968 5968 5968 5968 5968 5968 5969 5969 5969 5969 5969 5969 5969 5970 5970 5970 5970 5970 5971 5971 5971 5972 5972 5972 5972 5972 5971 5971 5971 5971 5971 5971 5971 5970 5970 5969 5969 5968 5968 5967 5966 5965 5965 5963
5917 5919 5922 5924 5925 5928 5931 5934 5936 5939 5940 5941 5942 5943 5944 5945 5946 5947 5948 5949 5951 5952 5953 5954 5955 5956 5956 5957 5958 5959 5960 5961 5962 5964 5965 5965 5966 5966 5966 5967 5967 5968 5968 5968 5968 5969 5969 5969 5969 5969 5969 5969 5969 5970 5970 5970 5970 5970 5970 5970 5971 5971 5971 5971 5971 5971 5971 5971 5971 5971 5971 5971 5971 5970 5970 5970 5969 5969 5968 5968 5967 5966 5966 5965 5963
5915 5917 5919 5921 5923 5925 5928 5931 5934 5936 5938 5940 5941 5942 5942 5943 5944 5945 5946 5948 5949 5950 5952 5953 5954 5955 5955 5956 5957 5958 5959 5960 5961 5962 5964 5965 5965 5966 5966 5966 5967 5967 5968 5968 5968 5968 5968 5969 5969 5969 5969 5969 5969 5970 5970 5970 5970 5970 5970 5970 5970 5970 5970 5970 5971 5971 5971 5971 5971 5971 5971 5970 5970 5970 5970 5970 5969 5969 5968 5968 5967 5966 5965 5964 5963
5913 5915 5917 5919 5921 5923 5925 5928 5931 5933 5935 5937 5938 5940 5941 5942 5943 5943 5945 5946 5947 5948 5950 5951 5952 5953 5954 5955 5956 5957 5958 5959 5960 5961 5963 5964 5964 5965 5965 5966 5966 5967 5967 5967 5967 5968 5968 5968 5968 5969 5969 5969 5969 5969 5969 5969 5969 5969 5969 5969 5970 5970 5970 5970 5970 5970 5970 5970 5970 5970 5970 5970 5970 5969 5969 5969 5969 5968 5968 5967 5967 5966 5964 5964 5963
5911 5913 5915 5917 5919 5921 5922 5924 5927 5929 5931 5933 5934 5937 5938 5940 5941 5942 5942 5944 5945 5946 5948 5949 5950 5951 5953 5954 5954 5956 5957 5958 5959 5960 5961 5963 5963 5964 5964 5965 5965 5966 5966 5967 5967 5967 5967 5968 5968 5968 5968 5968 5969 5969 5969 5969 5969 5969 5969 5969 5969 5969 5969 5969 5969 5969 5969 5969 5969 5969 5969 5969 5969 5969 5968 5968 5968 5968 5967 5967 5966 5965 5964 5963 5962
5909 5910 5912 5914 5916 5918 5919 5921 5923 5925 5926 5928 5931 5933 5935 5937 5938 5939 5940 5942 5943 5944 5946 5947 5948 5949 5951 5952 5953 5954 5955 5956 5958 5959 5960 5961 5962 5963 5963 5964 5964 5965 5966 5966 5966 5966 5966 5967 5967 5967 5967 5967 5967 5968 5968 5968 5968 5968 5968 5968 5968 5968 5968 5968 5968 5968 5968 5968 5968 5968 5968 5968 5968 5968 5968 5967 5967 5967 5966 5966 5965 5964 5963 5962 5962
5906 5907 5909 5912 5913 5915 5916 5918 5920 5921 5923 5926 5928 5930 5932 5934 5936 5937 5938 5939 5940 5942 5943 5944 5946 5947 5949 5950 5952 5953 5954 5955 5956 5957 5958 5960 5961 5962 5962 5963 5963 5964 5964 5965 5965 5965 5965 5965 5966 5966 5966 5966 5966 5966 5966 5967 5967 5966 5967 5967 5967 5967 5967 5967 5967 5967 5967 5967 5967 5967 5967 5966 5967 5967 5967 5967 5966 5966 5965 5965 5964 5964 5962 5961 5960
5904 5905 5907 5909 5910 5912 5914 5916 5918 5919 5922 5924 5926 5927 5929 5931 5933 5934 5935 5936 5937 5939 5940 5942 5944 5945 5947 5948 5950 5951 5952 5953 5954 5955 5956 5958 5959 5960 5961 5962 5962 5963 5963 5963 5964 5964 5964 5964 5964 5964 5965 5965 5965 5965 5965 5965 5965 5965 5965 5965 5965 5965 5965 5965 5965 5965 5965 5965 5965 5965 5965 5965 5965 5965 5965 5965 5965 5964 5964 5963 5963 5963 5962 5960 5959
5902 5903 5904 5906 5908 5910 5912 5914 5916 5918 5920 5922 5923 5925 5926 5928 5929 5931 5932 5933 5934 5935 5937 5940 5942 5943 5945 5946 5947 5949 5950 5951 5952 5953 5954 5955 5957 5958 5959 5960 5961 5961 5962 5962 5963 5963 5963 5963 5963 5963 5963 5963 5963 5963 5964 5964 5964 5964 5964 5964 5964 5964 5964 5964 5963 5964 5964 5963 5963 5963 5963 5963 5963 5964 5964 5964 5963 5963 5962 5962 5961 5961 5960 5959 5957
5901 5902 5903 5905 5907 5909 5910 5912 5914 5916 5917 5919 5921 5923 5924 5925 5927 5928 5930 5931 5931 5933 5934 5936 5938 5940 5942 5943 5945 5946 5948 5949 5949 5951 5952 5953 5954 5956 5957 5958 5959 5959 5960 5961 5961 5961 5962 5962 5962 5962 5962 5962 5962 5962 5962 5962 5962 5962 5962 5962 5962 5962 5962 5962 5962 5962 5962 5961 5961 5961 5961 5961 5961 5962 5962 5962 5961 5961 5960 5960 5960 5959 5958 5957 5955
5899 5901 5903 5905 5907 5909 5910 5912 5913 5914 5915 5917 5918 5920 5922 5924 5925 5926 5927 5928 5928 5930 5931 5933 5935 5937 5939 5941 5942 5944 5945 5946 5947 5949 5950 5951 5952 5953 5954 5955 5956 5957 5958 5958 5959 5960 5960 5960 5961 5961 5961 5961 5961 5961 5961 5961 5961 5961 5961 5961 5961 5960 5960 5960 5960 5960 5959 5959 5959 5959 5959 5959 5959 5959 5959 5960 5959 5958 5958 5958 5957 5957 5956 5955 5953
5895 5897 5900 5903 5906 5908 5910 5912 5912 5913 5914 5915 5916 5918 5920 5922 5923 5924 5924 5925 5926 5927 5928 5930 5931 5933 5935 5937 5939 5941 5942 5943 5945 5946 5947 5948 5950 5951 5952 5953 5954 5955 5955 5956 5957 5958 5958 5959 5959 5959 5959 5959 5959 5959 5959 5959 5959 5959 5959 5959 5959 5958 5958 5958 5958 5958 5957 5957 5957 5957 5957 5957 5957 5956 5957 5957 5956 5956 5955 5955 5954 5954 5953 5952 5950
5892 5894 5896 5899 5902 5905 5907 5909 5911 5912 5913 5914 5915 5916 5917 5919 5920 5921 5922 5923 5924 5925 5925 5926 5928 5929 5931 5933 5935 5937 5939 5940 5942 5943 5945 5946 5947 5948 5949 5950 5951 5952 5953 5954 5955 5955 5956 5957 5957 5957 5957 5957 5957 5957 5957 5957 5958 5958 5957 5957 5957 5957 5956 5956 5956 5956 5955 5955 5955 5955 5954 5955 5955 5954 5954 5954 5953 5953 5952 5951 5951 5950 5951 5949 5947
5890 5893 5896 5898 5899 5901 5903 5905 5907 5909 5911 5913 5914 5915 5915 5916 5917 5918 5919 5920 5921 5921 5922 5924 5925 5926 5928 5930 5932 5934 5936 5937 5938 5940 5941 5942 5944 5945 5947 5948 5949 5950 5951 5951 5952 5952 5953 5954 5955 5955 5955 5955 5955 5955 5955 5956 5956 5956 5955 5955 5955 5955 5954 5954 5953 5953 5953 5953 5952 5952 5952 5951 5951 5951 5951 5950 5950 5949 5949 5948 5947 5947 5947 5947 5945
5887 5891 5893 5895 5897 5897 5898 5900 5903 5905 5907 5910 5912 5913 5913 5913 5914 5915 5916 5917 5918 5919 5920 5921 5922 5923 5925 5926 5929 5931 5932 5933 5935 5936 5938 5939 5940 5942 5944 5945 5946 5947 5948 5948 5949 5949 5950 5951 5952 5952 5952 5952 5952 5953 5953 5954 5954 5953 5953 5953 5953 5952 5951 5951 5951 5951 5951 5950 5950 5949 5949 5948 5948 5948 5947 5947 5946 5946 5946 5945 5944 5944 5944 5944 5943
5883 5886 5889 5891 5893 5894 5895 5897 5900 5901 5903 5906 5908 5909 5910 5911 5911 5912 5913 5914 5915 5915 5916 5917 5919 5920 5922 5923 5925 5927 5929 5930 5931 5933 5934 5935 5937 5939 5940 5941 5943 5944 5945 5945 5946 5946 5947 5948 5948 5949 5949 5949 5950 5950 5951 5951 5951 5951 5951 5951 5950 5949 5948 5948 5949 5949 5948 5948 5947 5946 5946 5945 5944 5944 5943 5943 5943 5943 5943 5942 5941 5941 5942 5942 5941
5880 5882 5884 5887 5888 5890 5892 5895 5897 5898 5900 5902 5904 5905 5906 5907 5908 5909 5910 5911 5911 5912 5913 5915 5916 5918 5919 5921 5922 5923 5925 5926 5928 5929 5930 5931 5933 5935 5937 5938 5940 5941 5942 5942 5942 5943 5943 5944 5945 5945 5945 5946 5946 5947 5948 5949 5949 5949 5948 5948 5947 5946 5945 5945 5946 5946 5945 5945 5944 5943 5942 5941 5941 5940 5940 5939 5939 5939 5940 5939 5939 5939 5940 5940 5938
5874 5877 5878 5880 5883 5887 5890 5892 5894 5895 5897 5899 5900 5901 5902 5904 5905 5906 5906 5907 5908 5909 5911 5912 5914 5915 5916 5918 5919 5920 5922 5923 5924 5925 5927 5928 5929 5931 5933 5935 5937 5938 5938 5938 5939 5939 5940 5940 5941 5941 5942 5942 5943 5944 5945 5946 5946 5946 5946 5945 5944 5942 5942 5943 5943 5942 5942 5941 5940 5939 5938 5938 5937 5937 5937 5936 5936 5937 5937 5937 5937 5938 5938 5937 5936
5869 5871 5873 5875 5879 5883 5886 5889 5891 5892 5893 5895 5896 5897 5899 5900 5902 5903 5903 5904 5905 5906 5908 5909 5911 5912 5913 5915 5917 5918 5919 5920 5921 5921 5922 5924 5926 5927 5929 5931 5933 5934 5934 5935 5936 5936 5937 5937 5937 5937 5938 5938 5939 5941 5942 5942 5943 5943 5943 5942 5941 5940 5939 5939 5939 5939 5938 5938 5937 5936 5935 5934 5934 5934 5934 5934 5935 5935 5935 5936 5936 5935 5935 5934 5933
5865 5867 5870 5873 5876 5880 5882 5885 5887 5888 5889 5890 5892 5894 5895 5897 5898 5899 5900 5900 5902 5903 5905 5906 5908 5909 5910 5912 5914 5915 5916 5917 5917 5918 5919 5920 5922 5924 5926 5928 5929 5929 5931 5932 5933 5933 5933 5933 5933 5933 5934 5935 5936 5937 5938 5939 5939 5940 5939 5938 5937 5937 5936 5936 5935 5935 5935 5934 5933 5932 5932 5931 5932 5932 5932 5933 5933 5934 5934 5934 5933 5932 5931 5931 5930
5862 5863 5866 5869 5872 5876 5878 5881 5883 5884 5886 5887 5889 5890 5891 5893 5895 5896 5897 5897 5898 5900 5902 5904 5905 5906 5907 5909 5911 5912 5913 5914 5915 5915 5916 5917 5918 5920 5922 5923 5924 5925 5927 5928 5929 5929 5928 5929 5929 5929 5930 5931 5932 5933 5934 5935 5936 5935 5934 5934 5934 5934 5933 5933 5932 5931 5931 5931 5930 5929 5929 5929 5929 5929 5930 5931 5931 5932 5931 5931 5930 5929 5928 5927 5926
5859 5861 5863 5866 5868 5871 5874 5877 5879 5881 5882 5883 5885 5886 5887 5889 5891 5893 5894 5894 5895 5897 5899 5901 5902 5904 5905 5906 5907 5908 5910 5911 5912 5912 5913 5914 5915 5916 5917 5919 5919 5921 5923 5924 5924 5924 5924 5925 5926 5926 5927 5928 5929 5930 5931 5932 5932 5931 5931 5930 5930 5930 5930 5929 5929 5928 5928 5928 5927 5926 5926 5926 5926 5927 5928 5928 5929 5928 5928 5927 5926 5925 5924 5923 5922
5855 5858 5860 5863 5865 5867 5870 5873 5876 5878 5879 5880 5881 5883 5884 5885 5887 5889 5890 5891 5892 5894 5897 5898 5900 5901 5902 5903 5904 5905 5906 5907 5908 5909 5910 5911 5912 5912 5913 5914 5915 5917 5919 5920 5920 5920 5921 5922 5923 5923 5924 5925 5926 5927 5928 5928 5928 5928 5927 5927 5927 5927 5927 5926 5926 5926 5925 5925 5924 5924 5923 5923 5924 5924 5925 5925 5925 5924 5924 5923 5922 5921 5920 5919 5918
5851 5853 5856 5858 5861 5863 5866 5868 5871 5874 5875 5877 5878 5879 5880 5881 5883 5885 5886 5887 5889 5892 5894 5895 5897 5898 5899 5901 5901 5902 5902 5903 5904 5905 5906 5907 5908 5909 5910 5911 5912 5913 5915 5916 5916 5917 5918 5918 5919 5920 5921 5922 5923 5924 5924 5924 5924 5924 5924 5924 5924 5924 5924 5923 5923 5923 5922 5922 5922 5921 5921 5921 5921 5921 5921 5921 5920 5920 5920 5919 5919 5918 5916 5915 5914
5845 5848 5851 5854 5856 5858 5861 5863 5866 5869 5871 5873 5874 5875 5876 5877 5879 5881 5882 5884 5887 5889 5890 5892 5893 5895 5897 5898 5898 5898 5898 5899 5900 5902 5902 5903 5905 5905 5906 5907 5908 5909 5911 5912 5913 5913 5914 5915 5916 5917 5918 5919 5920 5920 5920 5920 5921 5921 5921 5920 5921 5921 5920 5920 5920 5920 5920 5919 5919 5919 5919 5919 5918 5918 5917 5917 5917 5917 5916 5916 5915 5913 5912 5911 5909
5839 5843 5846 5848 5851 5853 5856 5859 5861 5864 5866 5869 5870 5872 5873 5875 5876 5878 5880 5882 5884 5885 5886 5887 5889 5891 5893 5893 5894 5894 5894 5895 5897 5898 5898 5899 5900 5900 5901 5902 5903 5905 5907 5908 5908 5909 5910 5912 5913 5914 5915 5916 5916 5916 5916 5916 5917 5917 5917 5917 5917 5917 5917 5917 5917 5917 5917 5917 5917 5916 5916 5916 5916 5915 5915 5914 5914 5913 5913 5911 5910 5909 5907 5906 5904
5834 5837 5839 5842 5845 5848 5851 5853 5856 5859 5861 5864 5867 5869 5870 5872 5873 5875 5877 5878 5879 5880 5881 5883 5885 5886 5887 5888 5889 5890 5891 5892 5893 5893 5893 5894 5894 5895 5896 5898 5900 5901 5903 5903 5904 5906 5908 5909 5910 5911 5912 5912 5912 5912 5913 5913 5913 5913 5913 5913 5913 5913 5914 5914 5914 5914 5914 5914 5914 5913 5913 5913 5913 5912 5912 5911 5911 5910 5909 5907 5906 5904 5903 5901 5899
5827 5830 5832 5835 5838 5841 5844 5847 5850 5853 5856 5860 5863 5865 5867 5868 5869 5870 5872 5873 5874 5875 5877 5878 5880 5881 5882 5883 5885 5886 5888 5888 5888 5887 5888 5889 5889 5890 5892 5894 5896 5898 5899 5900 5902 5904 5905 5906 5906 5907 5908 5908 5909 5909 5910 5910 5910 5910 5910 5910 5910 5910 5911 5911 5911 5910 5910 5911 5910 5910 5910 5910 5910 5909 5908 5908 5907 5906 5905 5903 5901 5900 5899 5897 5896
5820 5822 5825 5828 5831 5834 5837 5840 5843 5846 5850 5854 5857 5859 5861 5862 5864 5866 5867 5869 5870 5871 5873 5875 5876 5877 5878 5879 5881 5883 5885 5885 5884 5885 5885 5886 5886 5887 5888 5890 5892 5893 5894 5896 5898 5900 5901 5902 5903 5904 5904 5905 5906 5906 5906 5907 5907 5907 5907 5907 5908 5908 5908 5908 5908 5908 5908 5908 5907 5907 5907 5906 5906 5906 5905 5904 5903 5902 5900 5899 5897 5896 5895 5893 5891
5814 5816 5819 5822 5825 5828 5831 5834 5836 5839 5842 5845 5849 5852 5854 5856 5858 5861 5863 5864 5866 5867 5869 5871 5872 5873 5874 5876 5878 5880 5881 5882 5882 5882 5882 5882 5883 5884 5885 5886 5888 5889 5890 5893 5895 5897 5898 5899 5899 5900 5901 5902 5902 5903 5903 5904 5904 5904 5904 5905 5905 5905 5905 5905 5905 5905 5904 5904 5903 5903 5903 5902 5902 5901 5900 5899 5898 5897 5895 5893 5892 5890 5889 5888 5886
5808 5811 5814 5816 5819 5822 5825 5829 5831 5834 5836 5838 5839 5842 5846 5849 5852 5854 5856 5858 5860 5862 5863 5865 5867 5868 5870 5872 5874 5876 5877 5878 5878 5878 5877 5878 5879 5880 5881 5882 5884 5886 5888 5890 5892 5893 5894 5895 5896 5896 5897 5898 5899 5899 5900 5901 5901 5901 5902 5902 5902 5902 5902 5902 5901 5901 5900 5899 5899 5898 5897 5897 5896 5896 5895 5894 5893 5891 5890 5888 5887 5886 5885 5883 5881
5803 5806 5808 5811 5814 5817 5819 5822 5826 5829 5831 5833 5834 5835 5836 5837 5840 5844 5848 5850 5852 5853 5855 5858 5861 5863 5866 5868 5869 5871 5872 5873 5873 5873 5874 5875 5876 5877 5878 5879 5881 5883 5885 5887 5889 5890 5891 5892 5892 5893 5894 5895 5895 5896 5897 5898 5898 5898 5898 5899 5899 5898 5898 5898 5897 5896 5895 5894 5893 5893 5892 5891 5891 5890 5889 5889 5888 5887 5885 5884 5882 5881 5880 5878 5877
5798 5801 5803 5805 5807 5810 5813 5816 5820 5822 5824 5827 5830 5833 5833 5833 5835 5838 5842 5845 5847 5849 5852 5854 5857 5860 5862 5863 5865 5866 5867 5867 5868 5869 5871 5872 5872 5873 5875 5877 5879 5881 5882 5884 5885 5886 5887 5888 5889 5890 5891 5892 5892 5892 5893 5894 5894 5894 5895 5895 5895 5895 5894 5893 5892 5890 5889 5888 5888 5888 5887 5886 5885 5884 5884 5884 5883 5882 5880 5879 5878 5876 5875 5873 5872
5791 5795 5797 5799 5801 5804 5807 5811 5813 5815 5816 5818 5822 5826 5830 5832 5833 5835 5839 5842 5846 5848 5850 5851 5852 5854 5856 5858 5859 5861 5861 5862 5864 5865 5866 5867 5868 5870 5871 5873 5875 5877 5878 5880 5881 5881 5883 5884 5885 5886 5887 5888 5888 5888 5889 5890 5890 5890 5890 5890 5890 5890 5889 5888 5887 5886 5885 5884 5884 5883 5882 5881 5880 5879 5879 5878 5878 5876 5875 5874 5873 5872 5870 5869 5867
5785 5788 5791 5793 5796 5799 5803 5806 5809 5811 5812 5812 5813 5816 5821 5825 5828 5831 5836 5840 5843 5844 5846 5847 5848 5849 5850 5852 5853 5855 5856 5857 5859 5860 5861 5863 5864 5866 5867 5869 5871 5872 5874 5875 5876 5877 5879 5880 5881 5882 5883 5884 5884 5885 5885 5885 5885 5885 5885 5884 5884 5884 5884 5883 5883 5882 5881 5880 5879 5878 5876 5875 5875 5874 5874 5873 5872 5871 5870 5869 5868 5867 5866 5864 5863
5779 5782 5784 5787 5790 5794 5799 5803 5806 5807 5808 5807 5806 5808 5813 5818 5823 5828 5833 5836 5838 5839 5841 5843 5845 5845 5846 5847 5847 5848 5850 5851 5853 5855 5856 5858 5859 5861 5864 5866 5867 5869 5871 5872 5872 5874 5875 5876 5877 5878 5878 5879 5880 5880 5880 5880 5880 5879 5879 5878 5878 5878 5878 5877 5876 5876 5875 5874 5873 5872 5871 5870 5870 5869 5869 5867 5866 5865 5865 5864 5863 5862 5860 5860 5858
5773 5776 5778 5780 5783 5788 5793 5796 5799 5800 5800 5800 5801 5803 5807 5811 5816 5821 5825 5829 5831 5833 5836 5838 5839 5839 5840 5841 5842 5842 5844 5846 5848 5850 5852 5853 5855 5858 5860 5862 5864 5866 5867 5868 5869 5870 5871 5871 5873 5874 5874 5874 5874 5874 5874 5874 5874 5874 5873 5872 5872 5871 5870 5870 5870 5869 5869 5868 5867 5866 5865 5865 5864 5864 5863 5862 5861 5860 5859 5859 5858 5857 5855 5854 5853
5768 5771 5773 5774 5777 5782 5787 5790 5791 5793 5794 5795 5797 5799 5801 5805 5809 5813 5817 5820 5824 5828 5831 5833 5833 5831 5831 5832 5834 5836 5837 5839 5842 5846 5848 5850 5851 5854 5856 5858 5860 5861 5863 5864 5865 5865 5866 5867 5868 5868 5868 5868 5869 5869 5869 5868 5868 5867 5866 5865 5865 5864 5864 5863 5863 5863 5863 5862 5861 5860 5859 5858 5858 5857 5857 5856 5855 5854 5853 5853 5852 5851 5849 5848 5847
5762 5766 5769 5770 5771 5775 5780 5783 5786 5788 5789 5791 5793 5795 5797 5799 5802 5806 5809 5813 5816 5820 5824 5826 5825 5824 5823 5825 5826 5827 5829 5831 5835 5839 5843 5845 5846 5849 5851 5853 5855 5857 5858 5859 5859 5860 5861 5862 5862 5862 5862 5863 5863 5863 5863 5863 5862 5860 5859 5858 5858 5858 5857 5857 5857 5857 5856 5856 5854 5853 5853 5852 5851 5851 5850 5850 5849 5848 5847 5846 5845 5844 5843 5842 5840
5756 5760 5763 5765 5767 5769 5773 5776 5779 5782 5785 5787 5788 5790 5792 5794 5797 5799 5802 5805 5808 5811 5815 5817 5818 5817 5817 5819 5820 5820 5821 5823 5827 5832 5835 5838 5840 5843 5845 5848 5850 5851 5852 5853 5854 5854 5855 5856 5856 5856 5856 5857 5857 5857 5857 5856 5856 5854 5852 5851 5851 5852 5851 5850 5850 5850 5850 5849 5847 5846 5845 5845 5844 5844 5844 5843 5842 5841 5840 5839 5838 5837 5836 5835 5833
5750 5753 5757 5760 5762 5764 5766 5769 5773 5776 5779 5781 5782 5784 5786 5789 5791 5793 5795 5797 5799 5802 5805 5808 5809 5809 5810 5812 5813 5813 5814 5817 5820 5824 5828 5831 5834 5837 5840 5842 5844 5845 5846 5847 5848 5849 5849 5850 5850 5850 5850 5851 5851 5851 5851 5850 5850 5848 5846 5844 5845 5846 5845 5844 5844 5843 5843 5842 5840 5839 5838 5838 5838 5837 5837 5836 5835 5834 5833 5833 5832 5830 5829 5827 5826
5745 5747 5750 5753 5757 5759 5761 5763 5767 5770 5773 5776 5777 5779 5781 5783 5785 5786 5788 5790 5792 5795 5798 5800 5802 5803 5804 5805 5806 5807 5809 5811 5813 5816 5820 5824 5828 5831 5833 5836 5837 5839 5840 5841 5841 5842 5843 5843 5843 5844 5844 5844 5845 5845 5845 5844 5844 5843 5840 5839 5839 5839 5838 5838 5838 5837 5836 5835 5834 5833 5832 5832 5831 5830 5830 5829 5828 5827 5827 5826 5825 5824 5822 5821 5819
5740 5742 5744 5747 5750 5753 5756 5758 5761 5764 5767 5769 5771 5774 5775 5777 5778 5779 5781 5783 5785 5787 5789 5791 5792 5794 5796 5798 5800 5803 5805 5807 5809 5811 5814 5818 5822 5825 5827 5829 5831 5832 5833 5834 5835 5836 5836 5837 5837 5838 5838 5838 5838 5838 5838 5838 5838 5837 5835 5834 5833 5833 5833 5832 5832 5831 5830 5829 5828 5827 5827 5826 5825 5824 5823 5822 5821 5820 5820 5819 5818 5816 5815 5813 5811
5735 5737 5739 5741 5744 5747 5749 5752 5755 5757 5760 5763 5765 5767 5768 5769 5771 5773 5775 5776 5777 5778 5780 5782 5783 5785 5788 5790 5793 5797 5800 5803 5805 5808 5810 5813 5817 5819 5821 5823 5825 5826 5827 5828 5829 5829 5830 5831 5831 5831 5832 5832 5832 5832 5832 5832 5831 5830 5829 5829 5828 5828 5827 5826 5825 5824 5823 5822 5821 5821 5820 5819 5818 5817 5816 5815 5814 5813 5812 5811 5809 5808 5806 5804 5803
5729 5732 5734 5737 5739 5742 5743 5746 5748 5752 5755 5757 5759 5761 5762 5763 5765 5766 5767 5767 5768 5768 5768 5771 5774 5776 5778 5782 5788 5793 5797 5800 5801 5803 5806 5808 5811 5814 5816 5817 5819 5820 5821 5821 5822 5823 5824 5824 5825 5825 5825 5825 5826 5826 5825 5825 5825 5824 5823 5823 5822 5821 5820 5819 5818 5817 5816 5815 5814 5813 5812 5811 5810 5809 5807 5806 5805 5804 5802 5801 5800 5798 5797 5795 5793
5724 5727 5729 5731 5734 5737 5739 5741 5743 5747 5751 5752 5754 5757 5757 5756 5757 5759 5758 5755 5756 5759 5761 5764 5767 5769 5772 5778 5786 5792 5794 5796 5797 5798 5800 5802 5805 5808 5810 5811 5812 5813 5814 5814 5815 5816 5817 5818 5819 5819 5819 5819 5819 5819 5818 5818 5818 5817 5817 5816 5815 5814 5813 5812 5811 5810 5808 5807 5806 5804 5803 5802 5801 5799 5798 5797 5796 5794 5793 5792 5790 5789 5787 5786 5784
5719 5722 5723 5725 5728 5731 5734 5735 5738 5742 5746 5748 5750 5752 5752 5751 5753 5754 5749 5744 5747 5755 5760 5761 5762 5764 5767 5775 5782 5786 5788 5790 5791 5792 5794 5797 5800 5803 5805 5805 5806 5807 5807 5808 5809 5810 5810 5811 5812 5813 5812 5812 5812 5812 5811 5811 5811 5810 5809 5809 5808 5807 5806 5804 5803 5802 5800 5799 5797 5796 5794 5793 5792 5790 5789 5788 5786 5785 5784 5782 5781 5779 5778 5776 5774
5714 5716 5718 5720 5723 5726 5728 5730 5732 5736 5740 5742 5744 5747 5748 5749 5750 5750 5746 5743 5746 5752 5754 5755 5756 5758 5762 5768 5774 5778 5781 5783 5785 5787 5789 5792 5795 5797 5798 5799 5800 5800 5801 5801 5802 5803 5804 5805 5805 5805 5805 5805 5805 5805 5804 5803 5803 5802 5802 5801 5800 5799 5797 5796 5795 5793 5792 5790 5788 5787 5785 5784 5782 5781 5780 5778 5777 5776 5774 5772 5771 5769 5767 5765 5763
5708 5710 5712 5714 5717 5720 5723 5725 5727 5729 5732 5735 5737 5740 5743 5745 5747 5748 5747 5746 5747 5749 5749 5751 5754 5756 5760 5764 5767 5771 5774 5777 5779 5781 5784 5786 5789 5791 5792 5792 5793 5793 5794 5794 5795 5795 5796 5797 5797 5797 5798 5797 5797 5797 5796 5795 5794 5794 5793 5792 5791 5790 5789 5788 5786 5784 5783 5781 5779 5778 5776 5774 5773 5772 5770 5769 5768 5766 5764 5763 5761 5759 5756 5754 5752